CW1490 Weather Reports


Display with metric or nautical units.
time (UTC)temp
F
wind
direction
speed
MPH
gust
MPH
rain 1hr
in
rain 24hr
in
rain mn
in
humidity
%
barometer
mb
20140903065521 68 39 0.0 2.0 0.00 0.46 0.09 95 1007.5
20140903064020 68 40 0.0 3.0 0.00 0.46 0.09 95 1007.4
20140903062516 69 38 1.0 3.0 0.00 0.46 0.09 95 1007.3
20140903061014 70 191 1.0 2.0 0.00 0.46 0.09 95 1007.0
20140903055512 70 265 1.0 2.0 0.01 0.46 0.09 96 1006.8
20140903054010 70 300 0.0 2.0 0.01 0.46 0.09 95 1006.7
20140903052509 70 300 1.0 2.0 0.01 0.46 0.09 95 1006.4
20140903051009 71 300 0.0 2.0 0.01 0.46 0.09 94 1006.1
20140903045506 71 14 1.0 2.0 0.00 0.45 0.08 94 1006.2
20140903044009 71 15 0.0 3.0 0.00 0.45 0.08 93 1006.1
20140903042505 71 16 2.0 5.0 0.08 0.45 0.08 94 1005.9
20140903041001 72 333 2.0 10.0 0.08 0.45 0.08 96 1006.0
20140903035500 73 231 0.0 3.0 0.08 0.45 0.08 96 1006.0
20140903033959 73 295 1.0 3.0 0.07 0.44 0.07 96 1006.1
20140903032458 72 228 0.0 3.0 0.00 0.37 0.00 96 1005.3
20140903030957 72 222 2.0 4.0 0.00 0.37 0.00 96 1005.2
20140903025456 72 203 0.0 2.0 0.00 0.37 0.00 95 1005.3
20140903023953 73 203 2.0 4.0 0.00 0.37 0.00 95 1005.5
20140903022452 73 205 2.0 4.0 0.00 0.37 0.00 95 1005.6
20140903020950 73 254 0.0 1.0 0.00 0.37 0.00 95 1005.8
20140903015448 74 254 0.0 3.0 0.00 0.37 0.00 95 1005.8
20140903014148 74 239 3.0 5.0 0.00 0.37 0.00 95 1005.8
20140903012447 73 208 2.0 5.0 0.00 0.37 0.00 94 1005.7
20140903010944 74 222 1.0 4.0 0.00 0.37 0.00 94 1006.0
20140903005442 74 203 2.0 3.0 0.00 0.37 0.00 93 1006.0
20140903003940 75 234 1.0 3.0 0.00 0.37 0.00 93 1006.1
20140903002439 75 234 1.0 3.0 0.00 0.37 0.00 93 1006.5
20140903000936 76 234 2.0 4.0 0.00 0.37 0.00 92 1006.6
20140902235433 76 232 1.0 3.0 0.00 0.37 0.00 92 1006.5
20140902233928 77 230 1.0 3.0 0.00 0.37 0.00 90 1006.1
20140902232425 78 228 0.0 2.0 0.00 0.37 0.00 89 1006.3
20140902230921 80 228 0.0 3.0 0.00 0.37 0.00 89 1006.2
20140902225418 80 228 0.0 1.0 0.00 0.37 0.00 88 1006.3
20140902223915 81 228 0.0 2.0 0.00 0.37 0.00 87 1006.4
20140902222412 82 228 0.0 0.0 0.00 0.37 0.37 85 1006.5
20140902220910 83 228 0.0 1.0 0.00 0.37 0.37 84 1006.7
20140902215408 84 228 0.0 1.0 0.00 0.37 0.37 82 1007.0
20140902213907 85 228 0.0 1.0 0.00 0.37 0.37 80 1007.1
20140902212405 84 228 0.0 1.0 0.00 0.37 0.37 81 1007.3
20140902210904 83 228 0.0 2.0 0.00 0.37 0.37 85 1007.5
20140902205407 82 228 1.0 2.0 0.00 0.37 0.37 86 1007.7
20140902203904 83 228 0.0 2.0 0.00 0.37 0.37 82 1007.4
20140902202402 85 228 0.0 0.0 0.00 0.37 0.37 77 1007.4
20140902200900 86 228 2.0 4.0 0.00 0.37 0.37 71 1007.6
20140902195358 86 209 2.0 3.0 0.00 0.37 0.37 74 1007.6
20140902193855 85 129 0.0 3.0 0.00 0.37 0.37 74 1007.8
20140902192352 84 184 1.0 3.0 0.00 0.37 0.37 78 1008.2
20140902190849 84 57 2.0 4.0 0.00 0.37 0.37 79 1008.4
20140902185346 83 332 1.0 3.0 0.00 0.37 0.37 81 1008.5
20140902183845 82 20 0.0 3.0 0.00 0.37 0.37 81 1008.8
20140902182441 83 26 3.0 6.0 0.00 0.37 0.37 82 1009.0
20140902180839 81 2 3.0 6.0 0.00 0.37 0.37 83 1009.1
20140902175338 80 44 3.0 7.0 0.03 0.37 0.37 90 1009.3
20140902173837 78 33 3.0 9.0 0.37 0.37 0.37 92 1009.5
20140902172337 77 22 4.0 10.0 0.37 0.37 0.37 93 1009.7
20140902170832 75 61 6.0 12.0 0.37 0.37 0.37 91 1009.9
20140902165331 77 37 2.0 10.0 0.34 0.34 0.34 85 1010.2
20140902163830 81 234 0.0 2.0 0.00 0.00 0.00 82 1010.1
20140902162332 82 234 1.0 5.0 0.00 0.00 0.00 78 1009.8
20140902160828 82 184 3.0 7.0 0.00 0.00 0.00 78 1009.9
20140902155326 82 222 2.0 5.0 0.00 0.00 0.00 79 1010.1
20140902153823 81 238 2.0 4.0 0.00 0.00 0.00 80 1010.4
20140902152320 81 247 2.0 4.0 0.00 0.00 0.00 80 1010.7
20140902150820 81 184 5.0 8.0 0.00 0.00 0.00 79 1010.8
20140902145318 80 172 4.0 7.0 0.00 0.00 0.00 81 1010.7
20140902143817 79 162 2.0 6.0 0.00 0.00 0.00 82 1010.9
20140902142316 77 219 2.0 6.0 0.00 0.00 0.00 87 1011.1
20140902140815 75 265 3.0 6.0 0.00 0.00 0.00 96 1011.3
20140902135312 72 228 2.0 7.0 0.00 0.00 0.00 98 1011.6
20140902133812 71 40 0.0 3.0 0.00 0.00 0.00 98 1011.7
20140902132310 71 41 1.0 4.0 0.00 0.00 0.00 98 1011.5
20140902130810 70 219 0.0 3.0 0.00 0.00 0.00 98 1011.8
20140902125307 68 216 1.0 3.0 0.00 0.00 0.00 98 1012.0
20140902123806 68 216 1.0 2.0 0.00 0.00 0.00 98 1012.0
20140902122305 67 216 0.0 3.0 0.00 0.00 0.00 98 1012.0
20140902120802 66 217 0.0 0.0 0.00 0.00 0.00 98 1011.9
20140902115301 66 217 1.0 3.0 0.00 0.00 0.00 97 1011.8
20140902113759 65 217 0.0 2.0 0.00 0.00 0.00 97 1011.8
20140902112257 65 217 1.0 3.0 0.00 0.00 0.00 97 1011.7
20140902110855 65 193 0.0 2.0 0.00 0.00 0.00 97 1011.8
20140902105254 65 193 0.0 2.0 0.00 0.00 0.00 97 1011.5
20140902103754 64 193 0.0 0.0 0.00 0.00 0.00 97 1011.5
20140902102252 64 193 0.0 0.0 0.00 0.00 0.00 97 1011.3
20140902100752 64 192 0.0 3.0 0.00 0.00 0.00 97 1011.1
20140902095251 64 200 0.0 2.0 0.00 0.00 0.00 97 1011.1
20140902093752 64 200 0.0 3.0 0.00 0.00 0.00 97 1011.1
20140902092251 64 209 2.0 4.0 0.00 0.00 0.00 97 1011.1
20140902090750 63 330 0.0 0.0 0.00 0.00 0.00 97 1010.9
20140902085248 63 330 0.0 0.0 0.00 0.00 0.00 97 1011.1
20140902083747 63 330 0.0 0.0 0.00 0.00 0.00 96 1011.1
20140902082246 63 330 0.0 1.0 0.00 0.01 0.00 96 1011.3
20140902080746 63 333 0.0 0.0 0.00 0.01 0.00 96 1011.2
20140902075245 63 333 0.0 0.0 0.00 0.01 0.00 96 1011.3
20140902073747 63 333 0.0 0.0 0.00 0.01 0.00 96 1011.3
20140902072244 63 333 0.0 0.0 0.00 0.01 0.00 96 1011.2
20140902070741 63 333 0.0 0.0 0.00 0.01 0.00 96 1011.3